Time,TemperatureF,DewpointF,PressureIn,WindDirection,WindDirectionDegrees,WindSpeedMPH,WindSpeedGustMPH,Humidity,HourlyPrecipIn,Conditions,Clouds,dailyrainin,SoftwareType,DateUTC
2013-04-21 00:01:00,55.9,33.3,28.49,East,90,14.0,17.0,42,0.00,,,0.00,meteohub,2013-04-21 05:01:00,
2013-04-21 00:07:00,55.8,33.6,28.48,SE,135,12.0,17.0,43,0.00,,,0.00,meteohub,2013-04-21 05:07:00,
2013-04-21 00:12:00,55.8,33.6,28.49,East,90,12.0,17.0,43,0.00,,,0.00,meteohub,2013-04-21 05:12:00,
2013-04-21 00:17:00,55.6,33.4,28.49,East,90,13.0,14.0,43,0.00,,,0.00,meteohub,2013-04-21 05:17:00,
2013-04-21 00:22:00,55.4,33.3,28.50,East,90,12.0,14.0,43,0.00,,,0.00,meteohub,2013-04-21 05:22:00,
2013-04-21 00:27:00,55.2,33.1,28.50,East,90,12.0,15.0,43,0.00,,,0.00,meteohub,2013-04-21 05:27:00,
2013-04-21 00:32:00,55.2,33.1,28.49,SE,135,9.0,15.0,43,0.00,,,0.00,meteohub,2013-04-21 05:32:00,
2013-04-21 00:37:00,54.9,32.7,28.50,SE,135,8.0,15.0,43,0.00,,,0.00,meteohub,2013-04-21 05:37:00,
2013-04-21 00:42:00,55.0,33.4,28.49,SSE,158,9.0,13.0,44,0.00,,,0.00,meteohub,2013-04-21 05:42:00,
2013-04-21 00:47:00,54.9,33.4,28.50,East,90,10.0,14.0,44,0.00,,,0.00,meteohub,2013-04-21 05:47:00,
2013-04-21 00:52:00,54.5,33.1,28.49,SE,135,11.0,15.0,44,0.00,,,0.00,meteohub,2013-04-21 05:52:00,
2013-04-21 00:57:00,54.7,33.3,28.50,East,90,16.0,16.0,44,0.00,,,0.00,meteohub,2013-04-21 05:57:00,
2013-04-21 01:02:00,54.5,33.1,28.50,East,90,13.0,16.0,44,0.00,,,0.00,meteohub,2013-04-21 06:02:00,
2013-04-21 01:07:00,54.5,33.6,28.50,ESE,113,13.0,16.0,45,0.00,,,0.00,meteohub,2013-04-21 06:07:00,
2013-04-21 01:12:00,54.3,33.4,28.50,SE,135,11.0,16.0,45,0.00,,,0.00,meteohub,2013-04-21 06:12:00,
2013-04-21 01:17:00,54.0,33.1,28.50,East,90,15.0,16.0,45,0.00,,,0.00,meteohub,2013-04-21 06:17:00,
2013-04-21 01:22:00,54.0,33.1,28.49,East,90,14.0,16.0,45,0.00,,,0.00,meteohub,2013-04-21 06:22:00,
2013-04-21 01:27:00,54.1,33.3,28.49,NE,45,13.0,15.0,45,0.00,,,0.00,meteohub,2013-04-21 06:27:00,
2013-04-21 01:32:00,53.6,33.3,28.50,East,90,12.0,15.0,46,0.00,,,0.00,meteohub,2013-04-21 06:32:00,
2013-04-21 01:37:00,53.6,33.8,28.51,East,90,10.0,15.0,47,0.00,,,0.00,meteohub,2013-04-21 06:37:00,
2013-04-21 01:42:00,53.2,34.0,28.50,East,90,10.0,15.0,48,0.00,,,0.00,meteohub,2013-04-21 06:42:00,
2013-04-21 01:47:00,52.7,34.5,28.50,East,90,12.0,14.0,50,0.00,,,0.00,meteohub,2013-04-21 06:47:00,
2013-04-21 01:52:00,52.3,34.7,28.50,East,90,8.0,14.0,51,0.00,,,0.00,meteohub,2013-04-21 06:52:00,
2013-04-21 01:57:00,52.0,34.9,28.50,SE,135,9.0,12.0,52,0.00,,,0.00,meteohub,2013-04-21 06:57:00,
2013-04-21 02:02:00,51.8,35.2,28.50,East,90,10.0,12.0,53,0.00,,,0.00,meteohub,2013-04-21 07:02:00,
2013-04-21 02:07:00,51.3,35.6,28.50,East,90,14.0,14.0,55,0.00,,,0.00,meteohub,2013-04-21 07:07:00,
2013-04-21 02:12:00,51.1,36.0,28.50,East,90,7.0,14.0,56,0.00,,,0.00,meteohub,2013-04-21 07:12:00,
2013-04-21 02:17:00,51.1,36.0,28.50,East,90,11.0,17.0,56,0.00,,,0.00,meteohub,2013-04-21 07:17:00,
2013-04-21 02:22:00,50.9,35.8,28.51,East,90,8.0,17.0,56,0.00,,,0.00,meteohub,2013-04-21 07:22:00,
2013-04-21 02:27:00,50.9,36.1,28.51,East,90,11.0,17.0,57,0.00,,,0.00,meteohub,2013-04-21 07:27:00,
2013-04-21 02:32:00,50.9,36.1,28.51,East,90,9.0,17.0,57,0.00,,,0.00,meteohub,2013-04-21 07:32:00,
2013-04-21 02:37:00,50.9,36.7,28.50,East,90,14.0,14.0,58,0.00,,,0.00,meteohub,2013-04-21 07:37:00,
2013-04-21 02:42:00,50.5,36.3,28.50,East,90,11.0,14.0,58,0.00,,,0.00,meteohub,2013-04-21 07:42:00,
2013-04-21 02:47:00,50.4,36.1,28.49,East,90,10.0,14.0,58,0.00,,,0.00,meteohub,2013-04-21 07:47:00,
2013-04-21 02:52:00,50.4,36.1,28.49,East,90,12.0,14.0,58,0.00,,,0.00,meteohub,2013-04-21 07:52:00,
2013-04-21 02:57:00,50.5,36.3,28.49,East,90,11.0,15.0,58,0.00,,,0.00,meteohub,2013-04-21 07:57:00,
2013-04-21 03:02:00,50.5,36.7,28.49,East,90,10.0,15.0,59,0.00,,,0.00,meteohub,2013-04-21 08:02:00,
2013-04-21 03:07:00,50.4,36.5,28.49,East,90,14.0,15.0,59,0.00,,,0.00,meteohub,2013-04-21 08:07:00,
2013-04-21 03:12:00,50.2,36.3,28.49,East,90,10.0,14.0,59,0.00,,,0.00,meteohub,2013-04-21 08:12:00,
2013-04-21 03:17:00,50.2,36.9,28.49,East,90,11.0,14.0,60,0.00,,,0.00,meteohub,2013-04-21 08:17:00,
2013-04-21 03:22:00,50.2,36.9,28.49,East,90,13.0,14.0,60,0.00,,,0.00,meteohub,2013-04-21 08:22:00,
2013-04-21 03:27:00,50.2,36.9,28.50,SSE,158,13.0,13.0,60,0.00,,,0.00,meteohub,2013-04-21 08:27:00,
2013-04-21 03:32:00,50.2,37.2,28.50,East,90,11.0,13.0,61,0.00,,,0.00,meteohub,2013-04-21 08:32:00,
2013-04-21 03:37:00,50.0,37.0,28.50,East,90,10.0,13.0,61,0.00,,,0.00,meteohub,2013-04-21 08:37:00,
2013-04-21 03:42:00,50.2,36.9,28.50,East,90,11.0,13.0,60,0.00,,,0.00,meteohub,2013-04-21 08:42:00,
2013-04-21 03:47:00,50.2,36.9,28.50,East,90,9.0,13.0,60,0.00,,,0.00,meteohub,2013-04-21 08:47:00,
2013-04-21 03:52:00,50.0,36.7,28.50,East,90,11.0,13.0,60,0.00,,,0.00,meteohub,2013-04-21 08:52:00,
2013-04-21 03:57:00,50.2,36.9,28.51,East,90,10.0,12.0,60,0.00,,,0.00,meteohub,2013-04-21 08:57:00,
2013-04-21 04:02:00,50.4,37.0,28.50,ESE,113,15.0,15.0,60,0.00,,,0.00,meteohub,2013-04-21 09:02:00,
2013-04-21 04:07:00,50.4,36.5,28.51,East,90,10.0,15.0,59,0.00,,,0.00,meteohub,2013-04-21 09:07:00,
2013-04-21 04:12:00,50.7,36.9,28.51,East,90,12.0,15.0,59,0.00,,,0.00,meteohub,2013-04-21 09:12:00,
2013-04-21 04:17:00,50.5,36.7,28.51,East,90,11.0,15.0,59,0.00,,,0.00,meteohub,2013-04-21 09:17:00,
2013-04-21 04:22:00,50.4,37.0,28.51,East,90,10.0,14.0,60,0.00,,,0.00,meteohub,2013-04-21 09:22:00,
2013-04-21 04:27:00,50.5,37.2,28.51,East,90,11.0,15.0,60,0.00,,,0.00,meteohub,2013-04-21 09:27:00,
2013-04-21 04:32:00,50.5,37.2,28.51,East,90,13.0,15.0,60,0.00,,,0.00,meteohub,2013-04-21 09:32:00,
2013-04-21 04:37:00,50.5,37.2,28.52,East,90,8.0,15.0,60,0.00,,,0.00,meteohub,2013-04-21 09:37:00,
2013-04-21 04:42:00,50.2,37.2,28.52,East,90,10.0,14.0,61,0.00,,,0.00,meteohub,2013-04-21 09:42:00,
2013-04-21 04:47:00,50.0,37.0,28.52,East,90,9.0,13.0,61,0.00,,,0.00,meteohub,2013-04-21 09:47:00,
2013-04-21 04:52:00,49.8,37.4,28.52,East,90,8.0,13.0,62,0.00,,,0.00,meteohub,2013-04-21 09:52:00,
2013-04-21 04:57:00,50.0,37.6,28.53,East,90,14.0,14.0,62,0.00,,,0.00,meteohub,2013-04-21 09:57:00,
2013-04-21 05:02:00,50.0,37.6,28.52,East,90,8.0,14.0,62,0.00,,,0.00,meteohub,2013-04-21 10:02:00,
2013-04-21 05:07:00,49.6,37.6,28.53,NE,45,10.0,14.0,63,0.00,,,0.00,meteohub,2013-04-21 10:07:00,
2013-04-21 05:12:00,49.6,37.9,28.53,East,90,10.0,14.0,64,0.00,,,0.00,meteohub,2013-04-21 10:12:00,
2013-04-21 05:17:00,49.6,37.9,28.53,East,90,12.0,13.0,64,0.00,,,0.00,meteohub,2013-04-21 10:17:00,
2013-04-21 05:22:00,49.6,38.3,28.54,East,90,9.0,14.0,65,0.00,,,0.00,meteohub,2013-04-21 10:22:00,
2013-04-21 05:27:00,49.3,38.5,28.54,NE,45,12.0,15.0,66,0.00,,,0.00,meteohub,2013-04-21 10:27:00,
2013-04-21 05:32:00,49.3,38.8,28.54,East,90,15.0,15.0,67,0.00,,,0.00,meteohub,2013-04-21 10:32:00,
2013-04-21 05:37:00,49.3,38.8,28.54,East,90,10.0,15.0,67,0.00,,,0.00,meteohub,2013-04-21 10:37:00,
2013-04-21 05:42:00,49.1,39.0,28.54,East,90,10.0,15.0,68,0.00,,,0.00,meteohub,2013-04-21 10:42:00,
2013-04-21 05:47:00,48.9,38.8,28.54,East,90,9.0,15.0,68,0.00,,,0.00,meteohub,2013-04-21 10:47:00,
2013-04-21 05:52:00,49.1,39.4,28.54,East,90,10.0,11.0,69,0.00,,,0.00,meteohub,2013-04-21 10:52:00,
2013-04-21 05:57:00,48.6,38.8,28.55,East,90,11.0,12.0,69,0.00,,,0.00,meteohub,2013-04-21 10:57:00,
2013-04-21 06:02:00,48.7,39.4,28.55,East,90,7.0,12.0,70,0.00,,,0.00,meteohub,2013-04-21 11:02:00,
2013-04-21 06:07:00,48.4,39.0,28.55,East,90,8.0,12.0,70,0.00,,,0.00,meteohub,2013-04-21 11:07:00,
2013-04-21 06:12:00,48.4,39.7,28.55,East,90,6.0,13.0,72,0.00,,,0.00,meteohub,2013-04-21 11:12:00,
2013-04-21 06:17:00,48.0,39.4,28.55,East,90,10.0,13.0,72,0.00,,,0.00,meteohub,2013-04-21 11:17:00,
2013-04-21 06:22:00,48.2,39.9,28.55,East,90,11.0,13.0,73,0.00,,,0.00,meteohub,2013-04-21 11:22:00,
2013-04-21 06:27:00,47.7,39.7,28.56,East,90,8.0,13.0,74,0.00,,,0.00,meteohub,2013-04-21 11:27:00,
2013-04-21 06:32:00,47.7,39.7,28.56,NE,45,8.0,13.0,74,0.00,,,0.00,meteohub,2013-04-21 11:32:00,
2013-04-21 06:37:00,47.8,40.3,28.56,East,90,8.0,12.0,75,0.00,,,0.00,meteohub,2013-04-21 11:37:00,
2013-04-21 06:42:00,47.7,40.5,28.56,East,90,9.0,11.0,76,0.00,,,0.00,meteohub,2013-04-21 11:42:00,
2013-04-21 06:47:00,47.8,40.6,28.57,East,90,7.0,13.0,76,0.00,,,0.00,meteohub,2013-04-21 11:47:00,
2013-04-21 06:52:00,47.5,40.6,28.57,East,90,8.0,13.0,77,0.00,,,0.00,meteohub,2013-04-21 11:52:00,
2013-04-21 06:57:00,47.5,41.0,28.57,East,90,8.0,10.0,78,0.00,,,0.00,meteohub,2013-04-21 11:57:00,
2013-04-21 07:02:00,47.5,41.0,28.57,SE,135,6.0,10.0,78,0.00,,,0.00,meteohub,2013-04-21 12:02:00,
2013-04-21 07:07:00,47.3,41.2,28.57,East,90,8.0,10.0,79,0.00,,,0.00,meteohub,2013-04-21 12:07:00,
2013-04-21 07:12:00,47.3,41.4,28.57,East,90,9.0,10.0,80,0.00,,,0.00,meteohub,2013-04-21 12:12:00,
2013-04-21 07:17:00,47.3,41.4,28.58,East,90,8.0,10.0,80,0.00,,,0.00,meteohub,2013-04-21 12:17:00,
2013-04-21 07:22:00,47.5,41.9,28.58,NE,45,7.0,10.0,81,0.00,,,0.00,meteohub,2013-04-21 12:22:00,
2013-04-21 07:27:00,47.8,42.6,28.58,East,90,11.0,11.0,82,0.00,,,0.00,meteohub,2013-04-21 12:27:00,
2013-04-21 07:32:00,48.4,43.2,28.58,East,90,9.0,12.0,82,0.00,,,0.00,meteohub,2013-04-21 12:32:00,
2013-04-21 07:37:00,48.7,43.5,28.58,East,90,9.0,13.0,82,0.00,,,0.00,meteohub,2013-04-21 12:37:00,
2013-04-21 07:42:00,48.7,43.2,28.59,SE,135,11.0,13.0,81,0.00,,,0.00,meteohub,2013-04-21 12:42:00,
2013-04-21 07:47:00,49.5,43.9,28.59,East,90,11.0,13.0,81,0.00,,,0.00,meteohub,2013-04-21 12:47:00,
2013-04-21 07:52:00,50.0,44.4,28.59,East,90,8.0,11.0,81,0.00,,,0.00,meteohub,2013-04-21 12:52:00,
2013-04-21 07:57:00,50.4,44.4,28.60,East,90,8.0,11.0,80,0.00,,,0.00,meteohub,2013-04-21 12:57:00,
2013-04-21 08:02:00,50.5,44.6,28.60,NE,45,7.0,12.0,80,0.00,,,0.00,meteohub,2013-04-21 13:02:00,
2013-04-21 08:07:00,51.3,45.3,28.60,East,90,10.0,12.0,80,0.00,,,0.00,meteohub,2013-04-21 13:07:00,
2013-04-21 08:12:00,51.4,45.1,28.60,SE,135,9.0,12.0,79,0.00,,,0.00,meteohub,2013-04-21 13:12:00,
2013-04-21 08:17:00,52.2,45.5,28.60,ESE,113,11.0,12.0,78,0.00,,,0.00,meteohub,2013-04-21 13:17:00,
2013-04-21 08:22:00,52.7,45.7,28.60,East,90,15.0,15.0,77,0.00,,,0.00,meteohub,2013-04-21 13:22:00,
2013-04-21 08:27:00,53.2,45.9,28.60,East,90,10.0,15.0,76,0.00,,,0.00,meteohub,2013-04-21 13:27:00,
2013-04-21 08:32:00,53.8,46.0,28.60,East,90,15.0,15.0,75,0.00,,,0.00,meteohub,2013-04-21 13:32:00,
2013-04-21 08:37:00,54.1,46.0,28.60,SE,135,9.0,15.0,74,0.00,,,0.00,meteohub,2013-04-21 13:37:00,
2013-04-21 08:42:00,54.9,46.4,28.60,East,90,11.0,15.0,73,0.00,,,0.00,meteohub,2013-04-21 13:42:00,
2013-04-21 08:47:00,54.9,46.0,28.60,SE,135,13.0,15.0,72,0.00,,,0.00,meteohub,2013-04-21 13:47:00,
2013-04-21 08:52:00,55.8,46.9,28.60,SE,135,8.0,15.0,72,0.00,,,0.00,meteohub,2013-04-21 13:52:00,
2013-04-21 08:57:00,55.9,46.8,28.60,North,0,9.0,15.0,71,0.00,,,0.00,meteohub,2013-04-21 13:57:00,
2013-04-21 09:02:00,55.9,46.2,28.60,East,90,14.0,15.0,70,0.00,,,0.00,meteohub,2013-04-21 14:02:00,
2013-04-21 09:07:00,56.7,46.6,28.60,SE,135,12.0,14.0,69,0.00,,,0.00,meteohub,2013-04-21 14:07:00,
2013-04-21 09:12:00,56.7,46.6,28.61,ESE,113,11.0,14.0,69,0.00,,,0.00,meteohub,2013-04-21 14:12:00,
2013-04-21 09:17:00,57.0,46.6,28.61,East,90,7.0,14.0,68,0.00,,,0.00,meteohub,2013-04-21 14:17:00,
2013-04-21 09:22:00,57.4,46.9,28.61,SE,135,11.0,14.0,68,0.00,,,0.00,meteohub,2013-04-21 14:22:00,
2013-04-21 09:27:00,57.7,46.9,28.61,SE,135,10.0,14.0,67,0.00,,,0.00,meteohub,2013-04-21 14:27:00,
2013-04-21 09:32:00,57.9,46.6,28.61,SE,135,11.0,14.0,66,0.00,,,0.00,meteohub,2013-04-21 14:32:00,
2013-04-21 09:37:00,58.3,46.9,28.61,SSE,158,11.0,15.0,66,0.00,,,0.00,meteohub,2013-04-21 14:37:00,
2013-04-21 09:42:00,58.5,46.8,28.61,SE,135,10.0,15.0,65,0.00,,,0.00,meteohub,2013-04-21 14:42:00,
2013-04-21 09:47:00,59.5,46.9,28.61,SE,135,10.0,16.0,63,0.00,,,0.00,meteohub,2013-04-21 14:47:00,
2013-04-21 09:52:00,59.4,47.1,28.61,SE,135,12.0,16.0,64,0.00,,,0.00,meteohub,2013-04-21 14:52:00,
2013-04-21 09:57:00,59.4,47.1,28.61,SE,135,14.0,18.0,64,0.00,,,0.00,meteohub,2013-04-21 14:57:00,
2013-04-21 10:02:00,59.5,47.3,28.61,South,180,10.0,18.0,64,0.00,,,0.00,meteohub,2013-04-21 15:02:00,
2013-04-21 10:07:00,59.7,46.8,28.61,SE,135,16.0,18.0,62,0.00,,,0.00,meteohub,2013-04-21 15:07:00,
2013-04-21 10:12:00,60.3,47.1,28.61,East,90,10.0,17.0,62,0.00,,,0.00,meteohub,2013-04-21 15:12:00,
2013-04-21 10:17:00,60.8,47.3,28.60,East,90,13.0,17.0,61,0.00,,,0.00,meteohub,2013-04-21 15:17:00,
2013-04-21 10:22:00,60.4,47.3,28.61,East,90,16.0,17.0,62,0.00,,,0.00,meteohub,2013-04-21 15:22:00,
2013-04-21 10:27:00,60.8,47.7,28.61,SSE,158,17.0,17.0,62,0.00,,,0.00,meteohub,2013-04-21 15:27:00,
2013-04-21 10:32:00,61.3,48.2,28.61,South,180,11.0,17.0,62,0.00,,,0.00,meteohub,2013-04-21 15:32:00,
2013-04-21 10:37:00,61.5,47.5,28.61,SE,135,12.0,17.0,60,0.00,,,0.00,meteohub,2013-04-21 15:37:00,
2013-04-21 10:42:00,61.2,47.7,28.61,South,180,10.0,17.0,61,0.00,,,0.00,meteohub,2013-04-21 15:42:00,
2013-04-21 10:47:00,61.5,48.0,28.61,South,180,10.0,16.0,61,0.00,,,0.00,meteohub,2013-04-21 15:47:00,
2013-04-21 10:52:00,61.3,47.8,28.61,SE,135,17.0,18.0,61,0.00,,,0.00,meteohub,2013-04-21 15:52:00,
2013-04-21 10:57:00,61.9,48.7,28.61,SE,135,9.0,19.0,62,0.00,,,0.00,meteohub,2013-04-21 15:57:00,
2013-04-21 11:02:00,62.4,47.5,28.60,SSW,203,15.0,19.0,58,0.00,,,0.00,meteohub,2013-04-21 16:02:00,
2013-04-21 11:07:00,62.6,48.0,28.61,SW,225,14.0,19.0,59,0.00,,,0.00,meteohub,2013-04-21 16:07:00,
2013-04-21 11:12:00,63.1,48.2,28.60,South,180,11.0,17.0,58,0.00,,,0.00,meteohub,2013-04-21 16:12:00,
2013-04-21 11:17:00,63.9,47.8,28.60,South,180,13.0,17.0,56,0.00,,,0.00,meteohub,2013-04-21 16:17:00,
2013-04-21 11:22:00,64.4,48.4,28.61,South,180,10.0,15.0,56,0.00,,,0.00,meteohub,2013-04-21 16:22:00,
2013-04-21 11:27:00,63.9,47.8,28.60,South,180,17.0,21.0,56,0.00,,,0.00,meteohub,2013-04-21 16:27:00,
2013-04-21 11:32:00,63.9,47.8,28.60,South,180,12.0,21.0,56,0.00,,,0.00,meteohub,2013-04-21 16:32:00,
2013-04-21 11:37:00,64.6,48.0,28.60,SSE,158,12.0,21.0,55,0.00,,,0.00,meteohub,2013-04-21 16:37:00,
2013-04-21 11:42:00,65.3,48.2,28.60,SE,135,12.0,21.0,54,0.00,,,0.00,meteohub,2013-04-21 16:42:00,
2013-04-21 11:47:00,65.5,46.4,28.60,South,180,15.0,17.0,50,0.00,,,0.00,meteohub,2013-04-21 16:47:00,
2013-04-21 11:52:00,65.1,47.5,28.60,SE,135,8.0,17.0,53,0.00,,,0.00,meteohub,2013-04-21 16:52:00,
2013-04-21 11:58:00,65.8,47.1,28.60,SE,135,8.0,17.0,51,0.00,,,0.00,meteohub,2013-04-21 16:58:00,
2013-04-21 12:03:00,65.7,46.6,28.60,South,180,11.0,17.0,50,0.00,,,0.00,meteohub,2013-04-21 17:03:00,
2013-04-21 12:08:00,65.7,46.6,28.59,South,180,16.0,17.0,50,0.00,,,0.00,meteohub,2013-04-21 17:08:00,
2013-04-21 12:13:00,65.3,46.2,28.59,South,180,13.0,17.0,50,0.00,,,0.00,meteohub,2013-04-21 17:13:00,
2013-04-21 12:18:00,66.0,46.4,28.59,South,180,12.0,17.0,49,0.00,,,0.00,meteohub,2013-04-21 17:18:00,
2013-04-21 12:23:00,66.0,46.4,28.59,SE,135,13.0,17.0,49,0.00,,,0.00,meteohub,2013-04-21 17:23:00,
2013-04-21 12:28:00,67.3,46.9,28.59,South,180,7.0,15.0,48,0.00,,,0.00,meteohub,2013-04-21 17:28:00,
2013-04-21 12:33:00,67.6,46.8,28.59,South,180,12.0,15.0,47,0.00,,,0.00,meteohub,2013-04-21 17:33:00,
2013-04-21 12:38:00,67.1,45.7,28.58,South,180,8.0,13.0,46,0.00,,,0.00,meteohub,2013-04-21 17:38:00,
2013-04-21 12:43:00,67.3,46.9,28.58,East,90,9.0,14.0,48,0.00,,,0.00,meteohub,2013-04-21 17:43:00,
2013-04-21 12:48:00,68.2,48.4,28.58,South,180,11.0,14.0,49,0.00,,,0.00,meteohub,2013-04-21 17:48:00,
2013-04-21 12:53:00,68.4,46.8,28.58,SE,135,8.0,14.0,46,0.00,,,0.00,meteohub,2013-04-21 17:53:00,
2013-04-21 12:58:00,69.1,46.8,28.58,East,90,9.0,11.0,45,0.00,,,0.00,meteohub,2013-04-21 17:58:00,
2013-04-21 13:03:00,68.9,46.8,28.58,SE,135,8.0,11.0,45,0.00,,,0.00,meteohub,2013-04-21 18:03:00,
2013-04-21 13:08:00,69.6,47.3,28.57,South,180,14.0,14.0,45,0.00,,,0.00,meteohub,2013-04-21 18:08:00,
2013-04-21 13:13:00,68.7,46.6,28.57,South,180,15.0,15.0,45,0.00,,,0.00,meteohub,2013-04-21 18:13:00,
2013-04-21 13:18:00,68.4,45.7,28.57,South,180,12.0,15.0,44,0.00,,,0.00,meteohub,2013-04-21 18:18:00,
2013-04-21 13:23:00,69.1,47.5,28.57,SE,135,9.0,15.0,46,0.00,,,0.00,meteohub,2013-04-21 18:23:00,
2013-04-21 13:28:00,69.4,46.0,28.57,SE,135,11.0,15.0,43,0.00,,,0.00,meteohub,2013-04-21 18:28:00,
2013-04-21 13:33:00,69.6,46.2,28.57,East,90,10.0,13.0,43,0.00,,,0.00,meteohub,2013-04-21 18:33:00,
2013-04-21 13:38:00,70.2,46.0,28.56,East,90,8.0,13.0,42,0.00,,,0.00,meteohub,2013-04-21 18:38:00,
2013-04-21 13:43:00,70.7,46.4,28.56,SE,135,11.0,13.0,42,0.00,,,0.00,meteohub,2013-04-21 18:43:00,
2013-04-21 13:48:00,70.7,46.4,28.56,South,180,9.0,13.0,42,0.00,,,0.00,meteohub,2013-04-21 18:48:00,
2013-04-21 13:53:00,70.7,45.9,28.56,SW,225,10.0,14.0,41,0.00,,,0.00,meteohub,2013-04-21 18:53:00,
2013-04-21 13:58:00,70.5,46.4,28.56,East,90,8.0,14.0,42,0.00,,,0.00,meteohub,2013-04-21 18:58:00,
2013-04-21 14:03:00,70.5,46.4,28.56,SSE,158,11.0,14.0,42,0.00,,,0.00,meteohub,2013-04-21 19:03:00,
2013-04-21 14:08:00,70.9,45.3,28.56,SE,135,8.0,14.0,40,0.00,,,0.00,meteohub,2013-04-21 19:08:00,
2013-04-21 14:13:00,70.5,45.0,28.56,East,90,8.0,15.0,40,0.00,,,0.00,meteohub,2013-04-21 19:13:00,
2013-04-21 14:18:00,70.3,45.5,28.56,South,180,10.0,15.0,41,0.00,,,0.00,meteohub,2013-04-21 19:18:00,
2013-04-21 14:23:00,71.2,46.9,28.55,SE,135,11.0,13.0,42,0.00,,,0.00,meteohub,2013-04-21 19:23:00,
2013-04-21 14:28:00,71.1,45.5,28.55,SE,135,14.0,14.0,40,0.00,,,0.00,meteohub,2013-04-21 19:28:00,
2013-04-21 14:33:00,70.5,45.0,28.56,South,180,11.0,14.0,40,0.00,,,0.00,meteohub,2013-04-21 19:33:00,
2013-04-21 14:38:00,71.2,46.4,28.56,South,180,1.0,15.0,41,0.00,,,0.00,meteohub,2013-04-21 19:38:00,
2013-04-21 14:43:00,71.6,46.6,28.55,SE,135,11.0,15.0,41,0.00,,,0.00,meteohub,2013-04-21 19:43:00,
2013-04-21 14:48:00,71.4,45.1,28.55,SE,135,12.0,14.0,39,0.00,,,0.00,meteohub,2013-04-21 19:48:00,
2013-04-21 14:53:00,71.2,45.7,28.54,SE,135,13.0,18.0,40,0.00,,,0.00,meteohub,2013-04-21 19:53:00,
2013-04-21 14:58:00,70.9,46.6,28.54,East,90,8.0,18.0,42,0.00,,,0.00,meteohub,2013-04-21 19:58:00,
2013-04-21 15:03:00,71.6,46.6,28.54,East,90,10.0,18.0,41,0.00,,,0.00,meteohub,2013-04-21 20:03:00,
2013-04-21 15:08:00,71.8,46.2,28.54,East,90,11.0,14.0,40,0.00,,,0.00,meteohub,2013-04-21 20:08:00,
2013-04-21 15:14:00,72.7,46.2,28.54,SE,135,9.0,12.0,39,0.00,,,0.00,meteohub,2013-04-21 20:14:00,
2013-04-21 15:18:00,72.9,45.7,28.54,SE,135,11.0,12.0,38,0.00,,,0.00,meteohub,2013-04-21 20:18:00,
2013-04-21 15:24:00,72.5,45.5,28.54,SE,135,11.0,12.0,38,0.00,,,0.00,meteohub,2013-04-21 20:24:00,
2013-04-21 15:29:00,72.9,47.1,28.53,East,90,8.0,13.0,40,0.00,,,0.00,meteohub,2013-04-21 20:29:00,
2013-04-21 15:34:00,72.5,46.8,28.53,East,90,10.0,13.0,40,0.00,,,0.00,meteohub,2013-04-21 20:34:00,
2013-04-21 15:39:00,72.3,46.0,28.52,East,90,8.0,16.0,39,0.00,,,0.00,meteohub,2013-04-21 20:39:00,
2013-04-21 15:44:00,72.9,46.4,28.52,SE,135,11.0,16.0,39,0.00,,,0.00,meteohub,2013-04-21 20:44:00,
2013-04-21 15:49:00,72.3,46.0,28.52,SE,135,10.0,14.0,39,0.00,,,0.00,meteohub,2013-04-21 20:49:00,
2013-04-21 15:54:00,72.1,45.9,28.52,East,90,8.0,16.0,39,0.00,,,0.00,meteohub,2013-04-21 20:54:00,
2013-04-21 15:59:00,72.1,45.9,28.51,SE,135,14.0,16.0,39,0.00,,,0.00,meteohub,2013-04-21 20:59:00,
2013-04-21 16:04:00,72.3,46.6,28.52,East,90,11.0,16.0,40,0.00,,,0.00,meteohub,2013-04-21 21:04:00,
2013-04-21 16:09:00,72.0,45.7,28.51,SE,135,9.0,18.0,39,0.00,,,0.00,meteohub,2013-04-21 21:09:00,
2013-04-21 16:14:00,72.5,46.2,28.51,East,90,11.0,18.0,39,0.00,,,0.00,meteohub,2013-04-21 21:14:00,
2013-04-21 16:19:00,72.7,46.2,28.51,East,90,8.0,18.0,39,0.00,,,0.00,meteohub,2013-04-21 21:19:00,
2013-04-21 16:24:00,73.2,46.0,28.51,SE,135,11.0,15.0,38,0.00,,,0.00,meteohub,2013-04-21 21:24:00,
2013-04-21 16:29:00,72.9,46.4,28.50,SE,135,8.0,15.0,39,0.00,,,0.00,meteohub,2013-04-21 21:29:00,
2013-04-21 16:34:00,72.7,46.9,28.51,East,90,13.0,16.0,40,0.00,,,0.00,meteohub,2013-04-21 21:34:00,
2013-04-21 16:39:00,72.9,46.4,28.50,East,90,12.0,16.0,39,0.00,,,0.00,meteohub,2013-04-21 21:39:00,
2013-04-21 16:44:00,72.7,46.9,28.50,East,90,4.0,17.0,40,0.00,,,0.00,meteohub,2013-04-21 21:44:00,
2013-04-21 16:49:00,72.7,46.2,28.50,East,90,10.0,17.0,39,0.00,,,0.00,meteohub,2013-04-21 21:49:00,
2013-04-21 16:54:00,73.2,46.8,28.50,SE,135,10.0,17.0,39,0.00,,,0.00,meteohub,2013-04-21 21:54:00,
2013-04-21 16:59:00,73.2,46.8,28.50,SE,135,11.0,15.0,39,0.00,,,0.00,meteohub,2013-04-21 21:59:00,
2013-04-21 17:04:00,73.4,46.2,28.50,East,90,9.0,15.0,38,0.00,,,0.00,meteohub,2013-04-21 22:04:00,
2013-04-21 17:09:00,73.6,46.4,28.50,East,90,6.0,15.0,38,0.00,,,0.00,meteohub,2013-04-21 22:09:00,
2013-04-21 17:14:00,73.8,47.3,28.50,SSE,158,11.0,12.0,39,0.00,,,0.00,meteohub,2013-04-21 22:14:00,
2013-04-21 17:19:00,73.2,46.8,28.49,East,90,13.0,15.0,39,0.00,,,0.00,meteohub,2013-04-21 22:19:00,
2013-04-21 17:24:00,72.9,47.1,28.49,SE,135,13.0,15.0,40,0.00,,,0.00,meteohub,2013-04-21 22:24:00,
2013-04-21 17:29:00,72.9,47.1,28.50,SE,135,12.0,15.0,40,0.00,,,0.00,meteohub,2013-04-21 22:29:00,
2013-04-21 17:34:00,72.9,45.7,28.49,East,90,8.0,15.0,38,0.00,,,0.00,meteohub,2013-04-21 22:34:00,
2013-04-21 17:39:00,72.7,46.9,28.49,East,90,13.0,15.0,40,0.00,,,0.00,meteohub,2013-04-21 22:39:00,
2013-04-21 17:44:00,73.0,46.6,28.49,ESE,113,13.0,15.0,39,0.00,,,0.00,meteohub,2013-04-21 22:44:00,
2013-04-21 17:49:00,72.9,47.1,28.49,South,180,9.0,15.0,40,0.00,,,0.00,meteohub,2013-04-21 22:49:00,
2013-04-21 17:54:00,72.9,47.8,28.49,East,90,15.0,17.0,41,0.00,,,0.00,meteohub,2013-04-21 22:54:00,
2013-04-21 17:59:00,73.0,47.3,28.49,East,90,11.0,17.0,40,0.00,,,0.00,meteohub,2013-04-21 22:59:00,
2013-04-21 18:04:00,73.0,46.6,28.49,East,90,9.0,17.0,39,0.00,,,0.00,meteohub,2013-04-21 23:04:00,
2013-04-21 18:09:00,73.0,47.3,28.49,East,90,12.0,15.0,40,0.00,,,0.00,meteohub,2013-04-21 23:09:00,
2013-04-21 18:14:00,73.0,47.3,28.49,SE,135,11.0,13.0,40,0.00,,,0.00,meteohub,2013-04-21 23:14:00,
2013-04-21 18:19:00,72.7,46.9,28.49,SE,135,13.0,13.0,40,0.00,,,0.00,meteohub,2013-04-21 23:19:00,
2013-04-21 18:24:00,72.0,46.9,28.49,SE,135,15.0,16.0,41,0.00,,,0.00,meteohub,2013-04-21 23:24:00,
2013-04-21 18:29:00,72.0,47.7,28.49,East,90,12.0,16.0,42,0.00,,,0.00,meteohub,2013-04-21 23:29:00,
2013-04-21 18:34:00,72.1,48.4,28.49,SE,135,9.0,16.0,43,0.00,,,0.00,meteohub,2013-04-21 23:34:00,
2013-04-21 18:39:00,72.1,47.8,28.50,SE,135,15.0,16.0,42,0.00,,,0.00,meteohub,2013-04-21 23:39:00,
2013-04-21 18:44:00,72.0,47.7,28.50,South,180,10.0,16.0,42,0.00,,,0.00,meteohub,2013-04-21 23:44:00,
2013-04-21 18:49:00,71.6,47.8,28.50,SE,135,10.0,16.0,43,0.00,,,0.00,meteohub,2013-04-21 23:49:00,
2013-04-21 18:54:00,71.6,47.8,28.50,SE,135,9.0,15.0,43,0.00,,,0.00,meteohub,2013-04-21 23:54:00,
2013-04-21 18:59:00,71.2,47.7,28.50,ESE,113,11.0,15.0,43,0.00,,,0.00,meteohub,2013-04-21 23:59:00,
2013-04-21 19:04:00,71.2,48.2,28.50,East,90,11.0,16.0,44,0.00,,,0.00,meteohub,2013-04-22 00:04:00,
2013-04-21 19:09:00,71.2,48.2,28.50,SE,135,8.0,17.0,44,0.00,,,0.00,meteohub,2013-04-22 00:09:00,
2013-04-21 19:14:00,71.1,47.5,28.51,SE,135,10.0,17.0,43,0.00,,,0.00,meteohub,2013-04-22 00:14:00,
2013-04-21 19:19:00,71.1,48.0,28.50,East,90,9.0,17.0,44,0.00,,,0.00,meteohub,2013-04-22 00:19:00,
2013-04-21 19:24:00,70.7,48.4,28.50,SE,135,15.0,15.0,45,0.00,,,0.00,meteohub,2013-04-22 00:24:00,
2013-04-21 19:29:00,70.3,48.0,28.50,East,90,10.0,14.0,45,0.00,,,0.00,meteohub,2013-04-22 00:29:00,
2013-04-21 19:34:00,70.2,48.9,28.51,SE,135,8.0,15.0,47,0.00,,,0.00,meteohub,2013-04-22 00:34:00,
2013-04-21 19:39:00,70.0,48.7,28.50,East,90,9.0,15.0,47,0.00,,,0.00,meteohub,2013-04-22 00:39:00,
2013-04-21 19:44:00,69.4,49.5,28.51,East,90,8.0,13.0,49,0.00,,,0.00,meteohub,2013-04-22 00:44:00,
2013-04-21 19:50:00,69.1,49.6,28.51,East,90,7.0,12.0,50,0.00,,,0.00,meteohub,2013-04-22 00:50:00,
2013-04-21 19:55:00,68.7,49.8,28.51,East,90,7.0,12.0,51,0.00,,,0.00,meteohub,2013-04-22 00:55:00,
2013-04-21 20:00:00,68.4,50.0,28.51,East,90,7.0,12.0,52,0.00,,,0.00,meteohub,2013-04-22 01:00:00,
2013-04-21 20:05:00,68.0,50.2,28.51,SE,135,4.0,12.0,53,0.00,,,0.00,meteohub,2013-04-22 01:05:00,
2013-04-21 20:10:00,67.3,50.5,28.51,ESE,113,8.0,12.0,55,0.00,,,0.00,meteohub,2013-04-22 01:10:00,
2013-04-21 20:15:00,66.9,50.7,28.52,East,90,11.0,12.0,56,0.00,,,0.00,meteohub,2013-04-22 01:15:00,
2013-04-21 20:20:00,66.4,50.7,28.51,East,90,11.0,12.0,57,0.00,,,0.00,meteohub,2013-04-22 01:20:00,
2013-04-21 20:25:00,65.8,50.7,28.52,East,90,9.0,12.0,58,0.00,,,0.00,meteohub,2013-04-22 01:25:00,
2013-04-21 20:30:00,65.7,50.9,28.52,SE,135,9.0,11.0,59,0.00,,,0.00,meteohub,2013-04-22 01:30:00,
2013-04-21 20:35:00,65.1,50.9,28.51,East,90,8.0,11.0,60,0.00,,,0.00,meteohub,2013-04-22 01:35:00,
2013-04-21 20:40:00,65.1,50.9,28.52,East,90,11.0,11.0,60,0.00,,,0.00,meteohub,2013-04-22 01:40:00,
2013-04-21 20:45:00,64.8,51.1,28.52,East,90,9.0,15.0,61,0.00,,,0.00,meteohub,2013-04-22 01:45:00,
2013-04-21 20:50:00,64.4,51.1,28.52,East,90,13.0,15.0,62,0.00,,,0.00,meteohub,2013-04-22 01:50:00,
2013-04-21 20:55:00,64.2,51.4,28.52,NE,45,12.0,15.0,63,0.00,,,0.00,meteohub,2013-04-22 01:55:00,
2013-04-21 21:00:00,63.9,51.4,28.53,East,90,12.0,13.0,64,0.00,,,0.00,meteohub,2013-04-22 02:00:00,
2013-04-21 21:05:00,63.9,51.4,28.53,East,90,11.0,13.0,64,0.00,,,0.00,meteohub,2013-04-22 02:05:00,
2013-04-21 21:10:00,63.5,51.1,28.53,East,90,10.0,14.0,64,0.00,,,0.00,meteohub,2013-04-22 02:10:00,
2013-04-21 21:15:00,63.0,51.1,28.53,East,90,10.0,14.0,65,0.00,,,0.00,meteohub,2013-04-22 02:15:00,
2013-04-21 21:20:00,63.0,51.4,28.53,East,90,8.0,14.0,66,0.00,,,0.00,meteohub,2013-04-22 02:20:00,
2013-04-21 21:25:00,62.6,51.4,28.53,NE,45,8.0,14.0,67,0.00,,,0.00,meteohub,2013-04-22 02:25:00,
2013-04-21 21:30:00,62.4,51.3,28.53,East,90,9.0,14.0,67,0.00,,,0.00,meteohub,2013-04-22 02:30:00,
2013-04-21 21:35:00,62.2,51.6,28.53,East,90,11.0,14.0,68,0.00,,,0.00,meteohub,2013-04-22 02:35:00,
2013-04-21 21:40:00,62.1,51.8,28.53,East,90,10.0,17.0,69,0.00,,,0.00,meteohub,2013-04-22 02:40:00,
2013-04-21 21:45:00,61.7,51.8,28.54,East,90,11.0,14.0,70,0.00,,,0.00,meteohub,2013-04-22 02:45:00,
2013-04-21 21:50:00,61.5,51.6,28.54,East,90,11.0,14.0,70,0.00,,,0.00,meteohub,2013-04-22 02:50:00,
2013-04-21 21:55:00,61.3,51.4,28.54,SE,135,8.0,14.0,70,0.00,,,0.00,meteohub,2013-04-22 02:55:00,
2013-04-21 22:00:00,61.2,51.6,28.54,East,90,11.0,13.0,71,0.00,,,0.00,meteohub,2013-04-22 03:00:00,
2013-04-21 22:05:00,61.0,51.4,28.54,East,90,11.0,15.0,71,0.00,,,0.00,meteohub,2013-04-22 03:05:00,
2013-04-21 22:10:00,61.0,51.4,28.54,East,90,13.0,15.0,71,0.00,,,0.00,meteohub,2013-04-22 03:10:00,
2013-04-21 22:15:00,60.8,51.3,28.55,SE,135,11.0,15.0,71,0.00,,,0.00,meteohub,2013-04-22 03:15:00,
2013-04-21 22:20:00,60.8,51.8,28.55,SE,135,11.0,17.0,72,0.00,,,0.00,meteohub,2013-04-22 03:20:00,
2013-04-21 22:25:00,60.4,51.4,28.55,East,90,14.0,17.0,72,0.00,,,0.00,meteohub,2013-04-22 03:25:00,
2013-04-21 22:30:00,60.3,51.3,28.55,East,90,12.0,17.0,72,0.00,,,0.00,meteohub,2013-04-22 03:30:00,
2013-04-21 22:35:00,60.1,51.4,28.55,East,90,14.0,16.0,73,0.00,,,0.00,meteohub,2013-04-22 03:35:00,
2013-04-21 22:40:00,59.9,51.3,28.55,East,90,9.0,17.0,73,0.00,,,0.00,meteohub,2013-04-22 03:40:00,
2013-04-21 22:45:00,59.7,51.4,28.55,East,90,9.0,17.0,74,0.00,,,0.00,meteohub,2013-04-22 03:45:00,
2013-04-21 22:50:00,59.4,51.1,28.55,East,90,8.0,17.0,74,0.00,,,0.00,meteohub,2013-04-22 03:50:00,
2013-04-21 22:55:00,59.4,51.1,28.55,East,90,11.0,15.0,74,0.00,,,0.00,meteohub,2013-04-22 03:55:00,
2013-04-21 23:00:00,59.5,51.3,28.55,East,90,16.0,16.0,74,0.00,,,0.00,meteohub,2013-04-22 04:00:00,
2013-04-21 23:01:00,59.5,51.3,28.55,East,90,16.0,16.0,74,0.00,,,0.00,meteohub,2013-04-22 04:01:00,
2013-04-21 23:02:00,59.2,51.3,28.55,East,90,11.0,15.0,75,0.00,,,0.00,meteohub,2013-04-22 04:02:00,
2013-04-21 23:07:00,59.0,51.1,28.54,East,90,15.0,16.0,75,0.00,,,0.00,meteohub,2013-04-22 04:07:00,
2013-04-21 23:12:00,59.2,51.3,28.55,East,90,12.0,16.0,75,0.00,,,0.00,meteohub,2013-04-22 04:12:00,
2013-04-21 23:17:00,58.8,50.9,28.55,East,90,11.0,16.0,75,0.00,,,0.00,meteohub,2013-04-22 04:17:00,
2013-04-21 23:22:00,59.0,51.1,28.54,East,90,10.0,16.0,75,0.00,,,0.00,meteohub,2013-04-22 04:22:00,
2013-04-21 23:27:00,59.0,51.1,28.54,East,90,10.0,15.0,75,0.00,,,0.00,meteohub,2013-04-22 04:27:00,
2013-04-21 23:32:00,58.8,50.9,28.54,East,90,11.0,15.0,75,0.00,,,0.00,meteohub,2013-04-22 04:32:00,
2013-04-21 23:37:00,59.0,51.1,28.54,ESE,113,15.0,15.0,75,0.00,,,0.00,meteohub,2013-04-22 04:37:00,
2013-04-21 23:42:00,58.8,50.9,28.54,East,90,15.0,15.0,75,0.00,,,0.00,meteohub,2013-04-22 04:42:00,
2013-04-21 23:47:00,58.5,50.5,28.55,East,90,11.0,16.0,75,0.00,,,0.00,meteohub,2013-04-22 04:47:00,
2013-04-21 23:52:00,58.5,50.5,28.54,East,90,12.0,16.0,75,0.00,,,0.00,meteohub,2013-04-22 04:52:00,
2013-04-21 23:57:00,58.5,50.9,28.54,East,90,11.0,16.0,76,0.00,,,0.00,meteohub,2013-04-22 04:57:00,